Home > Weather > Korbach > Past weeks

Flag for Germany Past Weather in Korbach, Hesse, Germany — Yesterday and Last 2 Weeks

Now
68 °F

Broken clouds.


Feels Like: 68 °F
Forecast: 53 / 67 °F
Wind: 7 mph from Southwest

Location: Fritzlar Airport

Current Time: Jul 30, 2016 at 11:16:16 AM

Latest Report: Jul 30, 2016 at 10:20 AM


Visibility: N/A

Pressure: 29.92 "Hg

Humidity: 83%

Dew Point: 63 °F

Location of KorbachLocation

Past Weather in Korbach — Graph

°F

Korbach Temperature Yesterday

Maximum temperature yesterday: 73 °F (at 4:20 PM)
Minimum temperature yesterday: 59 °F (at 1:20 AM)
Average temperature yesterday: 65 °F

High & Low Weather Summary for the Past Weeks

 TemperatureHumidityPressure
High90 °F (Jul 20, 3:20 PM)100% (Jul 18, 2:20 AM)30.30 "Hg (Jul 18, 2:20 AM)
Low48 °F (Jul 16, 2:20 AM)27% (Jul 20, 5:20 PM)29.89 "Hg (Jul 20, 8:20 PM)
Average68 °F75%30.07 "Hg
* Reported Jul 15 9:20 AM — Jul 30 9:20 AM, Korbach, Weather by CustomWeather, © 2016

Note: Actual official high and low records may vary slightly from our data, if they occured in-between our weather recording intervals... More about our weather records

Advertising

Korbach Weather History for the Previous 24 Hours

Scroll right to see more
 ConditionsComfort  
Time TempWeatherWind HumidityBarometerVisibility
9:20 AM
Sat, Jul 30
66 °FBroken clouds.3 mph83%29.92 "HgN/A
8:20 AM63 °FFog.2 mph94%29.92 "HgN/A
7:20 AM63 °FFog.No wind94%29.92 "Hg5 mi
6:20 AM61 °FFog.3 mph94%29.92 "Hg4 mi
5:20 AM61 °FSprinkles. Partly cloudy.2 mph100%29.92 "Hg4 mi
4:20 AM59 °FPartly cloudy.1 mph100%29.92 "HgN/A
3:20 AM59 °FPassing clouds.3 mph94%29.92 "HgN/A
2:20 AM61 °FPassing clouds.5 mph94%29.92 "HgN/A
1:20 AM61 °FPassing clouds.3 mph94%29.92 "HgN/A
12:20 AM61 °FPassing clouds.1 mph94%29.92 "HgN/A
11:20 PM
Fri, Jul 29
61 °FPassing clouds.2 mph94%29.92 "HgN/A
10:20 PM63 °FPassing clouds.1 mph94%29.92 "HgN/A
9:20 PM64 °FScattered clouds.3 mph88%29.92 "HgN/A
8:20 PM66 °FScattered clouds.6 mph83%29.89 "HgN/A
7:20 PM68 °FPartly sunny.3 mph83%29.89 "HgN/A
6:20 PM66 °FScattered showers. Partly sunny.13 mph94%29.89 "Hg5 mi
5:58 PM70 °FRain showers. Mostly cloudy.3 mph78%29.89 "Hg2 mi
5:46 PM70 °FRain showers. Partly sunny.5 mph78%29.89 "Hg6 mi
5:20 PM72 °FSprinkles. Broken clouds.9 mph69%29.89 "HgN/A
4:20 PM73 °FPartly sunny.8 mph61%29.89 "HgN/A
3:20 PM70 °FPartly sunny.5 mph73%29.92 "HgN/A
2:20 PM68 °FPartly sunny.9 mph78%29.92 "HgN/A
1:20 PM68 °FLight rain. More clouds than sun.10 mph78%29.92 "HgN/A
12:20 PM68 °FPartly sunny.12 mph73%29.95 "HgN/A
12:00 PM70 °FBroken clouds.9 mph69%29.95 "HgN/A
11:20 AM68 °FBroken clouds.8 mph73%29.95 "HgN/A
Weather by CustomWeather, © 2016

See weather overviewHow to use our weather pages